Location: Passo di Treia
(43.2833°N, 13.3333°E)
Time: 01:54:46
(UTC+00:00)

Cosmos 1943 Rocket - Pass Details

Date: 09 December 2019
Orbit: 812 x 844 km, 71.0° (Epoch: 22 January)

Event Time Altitude Azimuth Distance (km) Brightness Sun altitude
Rises 18:16:22 0° 337° (NNW) 3,404 5.6 -29.2°
Reaches altitude 10° 18:18:51 10° 341° (NNW) 2,462 4.8 -29.7°
Enters shadow 18:21:13 25° 348° (NNW) 1,619 3.7 -30.1°
